#timestamp,LO_Frequency,Hit,StdDev 
1577853015.4,286047015.1,P
1577853035.2,286047012.6,P
1577853055.1,286047013.7,P
1577853056.0,286047013.7,Y
1577853075.8,286046998.3,P
1577853095.6,286046998.1,N
1577853115.5,286047000.9,N
1577853135.3,286047002.8,N
1577853155.2,286047001.4,N
1577853175.9,286047001.7,N
1577853195.7,286047004.0,N
1577853215.6,286047003.9,N
1577853235.4,286047005.8,N
1577853255.2,286047005.2,N
1577853275.1,286047006.9,N
1577853276.0,286047006.9,N
1577853295.8,286047008.9,N
1577853315.7,286047008.3,N
1577853335.5,286047008.6,N
1577853355.3,286047009.1,N
1577853375.2,286047007.5,N
1577853395.9,286047007.0,N
1577853415.7,286047007.2,N
1577853435.6,286047005.3,N
1577853455.4,286047007.5,N
1577853475.2,286047005.3,N
1577853495.1,286047004.7,N
1577853496.0,286047004.7,N
1577853515.8,286047004.5,N
1577853535.7,286047005.0,N
1577853555.5,286047005.6,N
1577853575.3,286047005.8,N
1577853595.2,286047003.8,N
1577853615.0,286047001.4,N
1577853615.9,286047001.4,N
1577853635.8,286047001.3,N
1577853655.6,286047001.7,N
1577853675.4,286047001.8,N
1577853695.3,286047001.8,N
1577853715.1,286047001.8,N
1577853716.0,286047001.8,N
1577853735.8,286047002.3,N
1577853755.7,286047002.6,N
1577853775.5,286047002.5,N
1577853795.4,286046999.7,N
1577853815.2,286047000.7,N
1577853835.0,286047001.2,N
1577853835.9,286047001.2,N
1577853855.8,286046998.9,N
1577853875.6,286046999.0,N
1577853895.4,286046998.9,N
1577853915.3,286046996.9,N
1577853935.1,286046998.7,N
1577853955.9,286046998.4,N
1577853975.7,286046999.0,N
1577853995.5,286046999.1,N
1577854015.4,286046998.9,N
1577854035.2,286046999.0,N
1577854055.0,286047011.9,Y
1577854055.9,286046999.5,P
1577854075.8,286046995.0,P
1577854095.6,286046995.3,N
1577854115.5,286046997.3,N
1577854135.3,286046996.9,N
1577854155.1,286046996.6,N
1577854175.9,286046996.8,N
1577854195.7,286046997.3,N
1577854215.5,286046997.7,N
1577854235.4,286046997.6,N
1577854255.2,286046995.7,N
1577854275.1,286046995.5,N
1577854276.0,286046995.5,N
1577854295.8,286046995.6,N
1577854315.6,286046995.2,N
1577854335.5,286046995.1,Y
1577854355.3,286047001.2,P
1577854375.1,286046998.7,N
1577854395.9,286046998.8,N
1577854415.7,286046998.5,N
1577854435.6,286046999.1,N
1577854455.4,286047001.1,N
1577854475.2,286046999.4,N
1577854495.1,286046999.3,N
1577854496.0,286046999.3,N
1577854515.8,286046996.6,N
1577854535.6,286046997.5,N
1577854555.5,286046997.3,N
1577854575.3,286046997.3,N
1577854595.2,286046997.2,N
1577854615.9,286046997.2,N
1577854635.7,286046998.0,N
1577854655.6,286046998.8,N
1577854675.4,286046998.8,N
1577854695.2,286046998.3,N
1577854715.1,286046998.8,N
1577854716.0,286046998.8,N
1577854735.8,286046997.2,N
1577854755.7,286046997.4,N
1577854775.5,286046995.4,Y
1577854795.3,286046997.3,P
